STARLINK-26

decayed
NORAD ID: 44240 Int'l Des: 2019-029 Owner: SPXS Country: US Constellation: starlink
LEOCIRCULAR
Gruppe

Über STARLINK-26

Beschreibung wird geladen...

Höhenverlauf

Altitude vs Time

uPlot chart will show altitude changes over time

Zweizeiliger Elementsatz

1 44240U 19029F 21100.41945393 .20637293 12492-4 12328-2 0 9999
2 44240 52.9634 161.2403 0004843 7.8568 353.8836 16.41561846106011
Epoch: 10. Apr. 2021 • Age: 38866 hours

Aktueller Status

Position data unavailable
Startdatum 24. Mai 2019
Alter 6.3 years
Verglühungsdatum 10. Apr. 2021
Typ internet

Technische Details

Klassifizierung Payload
Masse 227.00 kg
Trockenmasse 219.00 kg
Gesamtmasse 227.00 kg
Länge 0.20 m
Durchmesser 2.80 m
Spannweite 9.00 m
Form Box + pan
Hersteller SPXS
Bus-Typ Starlink
Phasenstatus Unknown Transfer Status
Besitzer/Staat SPXS/US

Große Konstellationen

Loading constellations...